Stations météo

réclame
Mon MeteoGroup
Milford-Haven, Grande-Bretagne (3604): Température de l'air & dewpoint: 17.10.2018 00:00:00 - 23.10.2018 00:00:00 (BST)Milford-Haven, Grande-Bretagne (3604): Température de l'air -20cm & Température de l'air -100cm: 17.10.2018 00:00:00 - 23.10.2018 00:00:00 (BST)Milford-Haven, Grande-Bretagne (3604): Vitesse du vent: 17.10.2018 00:00:00 - 23.10.2018 00:00:00 (BST)Milford-Haven, Grande-Bretagne (3604): Direction du vent: 17.10.2018 00:00:00 - 23.10.2018 00:00:00 (BST)Milford-Haven, Grande-Bretagne (3604): reduced air pressure: 17.10.2018 00:00:00 - 23.10.2018 00:00:00 (BST)Milford-Haven, Grande-Bretagne (3604): visibility: 17.10.2018 00:00:00 - 23.10.2018 00:00:00 (BST)Milford-Haven, Grande-Bretagne (3604): Quantités de précipitations: 17.10.2018 00:00:00 - 23.10.2018 00:00:00 (BST)
Date & Time tt [°C] td [°C] tt -20cm [°C] tt -100cm [°C] ff [km/h] ff [knt] dd ppp [hPa] vv [km] rr [mm]
23.10.2018 00:00:00 - - - - - - - - - -
22.10.2018 23:00:00 8,6 6,5 - - 13 7 NW 1040,2 29 0,0
22.10.2018 22:00:00 8,9 6,2 - - 13 7 NW 1040,1 30 0,0
22.10.2018 21:00:00 8,3 5,9 - - 11 6 NNW 1040,9 30 0,0
22.10.2018 20:00:00 8,6 5,7 - - 13 7 NNW 1040,8 30 0,0
22.10.2018 19:00:00 8,9 5,4 - - 8 4 N 1040,5 30 0,0
22.10.2018 18:00:00 10,3 5,5 - - 13 7 N 1040,4 30 0,0
22.10.2018 17:00:00 11,3 4,9 - - 13 7 N 1040,1 40 0,0
22.10.2018 16:00:00 12,0 5,4 - - 13 7 N 1040,4 30 0,0
22.10.2018 15:00:00 12,2 5,3 - - 16 9 N 1040,5 35 0,0
22.10.2018 14:00:00 12,9 5,0 - - 13 7 NNE 1040,7 30 0,0
22.10.2018 13:00:00 12,4 6,2 - - 15 8 N 1041,3 29 0,0
22.10.2018 12:00:00 12,6 6,0 - - 11 6 NNE 1041,0 29 0,0
22.10.2018 11:00:00 11,4 6,5 - - 8 4 NNE 1040,5 24 0,0
22.10.2018 10:00:00 10,1 5,3 12,0 13,5 5 3 N 1040,3 27 0,0
22.10.2018 09:00:00 9,0 5,1 - - 11 6 N 1039,8 29 0,0
22.10.2018 08:00:00 8,8 5,2 - - 15 8 N 1039,1 30 0,0
22.10.2018 07:00:00 8,9 5,8 - - 15 8 N 1038,4 30 0,0
22.10.2018 06:00:00 8,9 5,3 - - 15 8 N 1037,5 30 0,0
22.10.2018 05:00:00 8,9 5,1 - - 18 10 N 1037,0 35 0,0
22.10.2018 04:00:00 8,3 4,3 - - 13 7 N 1036,5 35 0,0
22.10.2018 03:00:00 9,3 5,2 - - 15 8 N 1036,3 35 0,0
22.10.2018 02:00:00 9,8 6,3 - - 18 10 N 1036,0 30 0,0
22.10.2018 01:00:00 10,1 6,8 - - 18 10 N 1035,5 30 0,0
22.10.2018 00:00:00 10,0 5,9 - - 18 10 N 1035,0 35 0,0
21.10.2018 23:00:00 10,1 6,4 - - 15 8 N 1034,4 40 0,0
21.10.2018 22:00:00 10,7 8,1 - - 13 7 N 1033,6 30 0,0
21.10.2018 21:00:00 11,1 8,0 - - 18 10 N 1032,8 40 0,0
21.10.2018 20:00:00 11,4 9,2 - - 18 10 N 1032,0 40 0,0
21.10.2018 19:00:00 11,8 9,8 - - 15 8 N 1031,1 45 0,0
21.10.2018 18:00:00 12,5 10,2 - - 21 11 N 1029,9 50 0,0
21.10.2018 17:00:00 13,2 11,4 - - 15 8 NNE 1029,1 50 0,0
21.10.2018 16:00:00 12,8 12,2 - - 21 11 N 1028,5 40 0,2
21.10.2018 15:00:00 13,6 12,9 - - 11 6 W 1028,7 4,1 0,4
21.10.2018 14:00:00 13,8 12,5 - - 15 8 W 1028,8 2,9 0,0
21.10.2018 13:00:00 14,1 11,6 - - 11 6 W 1028,7 45 0,0
21.10.2018 12:00:00 14,1 11,2 - - 13 7 WSW 1028,5 40 0,0
21.10.2018 11:00:00 14,1 10,8 - - 18 10 W 1028,9 45 0,0
21.10.2018 10:00:00 13,5 11,1 12,4 13,7 21 11 W 1029,0 35 0,0
21.10.2018 09:00:00 12,9 10,9 - - 13 7 WSW 1028,7 40 0,0
21.10.2018 08:00:00 13,1 11,4 - - 16 9 WSW 1028,4 30 0,0
21.10.2018 07:00:00 12,9 11,5 - - 16 9 WSW 1028,5 30 0,0
21.10.2018 06:00:00 12,4 10,9 - - 9 5 SW 1028,6 35 0,0
21.10.2018 05:00:00 12,3 11,1 - - 9 5 SW 1028,9 35 0,0
21.10.2018 04:00:00 12,1 11,3 - - 9 5 SW 1029,0 30 0,0
21.10.2018 03:00:00 11,9 11,3 - - 5 3 SW 1029,3 23 0,0
21.10.2018 02:00:00 11,9 11,2 - - 9 5 SSW 1029,5 18 0,0
21.10.2018 01:00:00 11,9 11,1 - - 5 3 SSW 1030,0 14 0,0
21.10.2018 00:00:00 11,8 11,0 - - 5 3 SSW 1030,5 22 0,0
20.10.2018 23:00:00 12,0 11,0 - - 4 2 SW 1030,6 25 0,0
20.10.2018 22:00:00 12,5 11,4 - - 5 3 W 1030,8 30 0,0
20.10.2018 21:00:00 12,8 11,5 - - 11 6 W 1030,9 35 0,0
20.10.2018 20:00:00 12,9 11,6 - - 9 5 W 1031,2 35 0,0
20.10.2018 19:00:00 13,1 11,5 - - 9 5 W 1031,3 30 0,0
20.10.2018 18:00:00 13,9 11,6 - - 13 7 WSW 1031,2 40 0,0
20.10.2018 17:00:00 14,7 11,5 - - 13 7 WSW 1031,2 45 0,0
20.10.2018 16:00:00 16,0 11,4 - - 11 6 WSW 1031,4 45 0,0
20.10.2018 15:00:00 16,6 12,4 - - 13 7 SW 1031,4 45 0,0
20.10.2018 14:00:00 16,7 13,0 - - 15 8 SW 1031,6 40 0,0
20.10.2018 13:00:00 15,5 12,7 - - 16 9 SSW 1031,8 24 0,0
20.10.2018 12:00:00 15,6 12,7 - - 15 8 SW 1032,0 35 0,0
20.10.2018 11:00:00 15,8 12,6 - - 13 7 SSW 1031,8 30 -
20.10.2018 10:00:00 12,7 11,8 12,2 13,7 5 3 SE 1031,6 18 0,0
20.10.2018 09:00:00 11,1 10,6 - - 4 2 S 1031,2 12 0,0
20.10.2018 08:00:00 10,6 10,0 - - 4 2 ESE 1030,7 13 0,0
20.10.2018 07:00:00 11,2 10,4 - - 2 1 SSE 1030,5 9 0,0
20.10.2018 06:00:00 11,9 11,1 - - 8 4 S 1030,0 7 0,0
20.10.2018 05:00:00 12,4 11,3 - - 8 4 W 1029,8 30 0,0
20.10.2018 04:00:00 12,5 11,3 - - 9 5 WSW 1029,8 30 0,0
20.10.2018 03:00:00 12,7 11,4 - - 8 4 SW 1029,5 29 0,0
20.10.2018 02:00:00 12,5 11,7 - - 9 5 WSW 1029,4 25 0,0
20.10.2018 01:00:00 11,8 11,0 - - 8 4 SW 1029,2 26 0,0
20.10.2018 00:00:00 12,1 11,2 - - 8 4 SSW 1029,2 17 0,0
19.10.2018 23:00:00 11,8 10,8 - - 5 3 SW 1028,9 19 0,0
19.10.2018 22:00:00 12,1 11,0 - - 8 4 WSW 1028,6 30 0,0
19.10.2018 21:00:00 12,2 11,1 - - 8 4 SW 1028,1 25 0,0
19.10.2018 20:00:00 12,1 10,7 - - 5 3 SW 1027,7 27 0,0
19.10.2018 19:00:00 12,8 11,2 - - 5 3 WSW 1027,9 30 0,0
19.10.2018 18:00:00 13,1 10,9 - - 8 4 WSW 1027,5 30 0,0
19.10.2018 17:00:00 14,5 11,1 - - 9 5 W 1027,4 35 0,0
19.10.2018 16:00:00 15,8 11,3 - - 8 4 WSW 1026,5 35 0,0
19.10.2018 15:00:00 17,0 11,6 - - 5 3 WSW 1026,3 35 0,0
19.10.2018 14:00:00 15,9 11,8 - - 9 5 W 1026,2 35 0,0
19.10.2018 13:00:00 15,8 12,0 - - 5 3 SW 1026,5 11 0,0
19.10.2018 12:00:00 14,0 12,1 - - 5 3 SW 1026,7 17 0,0
19.10.2018 11:00:00 12,1 11,0 - - 5 3 NE 1026,8 12 0,0
19.10.2018 10:00:00 12,2 10,8 12,2 13,9 5 3 E 1026,2 18 0,0
19.10.2018 09:00:00 10,9 10,4 - - 8 4 E 1025,5 9 0,0
19.10.2018 08:00:00 9,8 9,2 - - 8 4 ESE 1025,6 7 0,0
19.10.2018 07:00:00 9,7 9,1 - - 11 6 E 1025,5 8 0,0
19.10.2018 06:00:00 8,7 8,1 - - 11 6 E 1025,1 9 0,0
19.10.2018 05:00:00 8,7 8,0 - - 11 6 E 1025,2 9 0,0
19.10.2018 04:00:00 8,3 7,4 - - 9 5 E 1025,8 14 0,0
19.10.2018 03:00:00 7,2 6,3 - - 9 5 NE 1026,4 20 0,0
19.10.2018 02:00:00 6,8 5,8 - - 9 5 E 1025,9 28 0,0
19.10.2018 01:00:00 7,0 5,5 - - 8 4 E 1026,4 30 0,0
19.10.2018 00:00:00 7,3 5,5 - - 8 4 E 1026,9 35 0,0
18.10.2018 23:00:00 8,1 5,9 - - 5 3 ENE 1027,1 35 0,0
18.10.2018 22:00:00 8,8 6,4 - - 4 2 ENE 1026,7 35 0,0
18.10.2018 21:00:00 9,3 7,6 - - 4 2 E 1026,8 35 0,0
18.10.2018 20:00:00 10,1 6,2 - - 4 2 NE 1026,4 35 0,0
18.10.2018 19:00:00 11,0 6,0 - - 2 1 E 1026,4 50 0,0
18.10.2018 18:00:00 12,5 6,8 - - 8 4 SSE 1026,4 10 0,0
18.10.2018 17:00:00 13,7 7,1 - - 8 4 SW 1026,5 1,5 0,0
18.10.2018 16:00:00 15,7 5,9 - - 2 1 ESE 1026,7 50 0,0
18.10.2018 15:00:00 14,6 5,7 - - 9 5 SE 1027,1 50 0,0
18.10.2018 14:00:00 14,5 5,8 - - 9 5 E 1027,4 50 0,0
18.10.2018 13:00:00 14,4 7,5 - - 9 5 ENE 1028,0 50 0,0
18.10.2018 12:00:00 12,7 6,6 - - 11 6 ENE 1028,5 50 0,0
18.10.2018 11:00:00 11,6 6,0 - - 11 6 ENE 1028,9 50 0,0
18.10.2018 10:00:00 9,9 6,3 12,7 14,0 13 7 ENE 1028,7 50 0,0
18.10.2018 09:00:00 8,5 6,5 - - 9 5 ENE 1028,3 40 0,0
18.10.2018 08:00:00 8,2 6,6 - - 11 6 NE 1028,1 40 0,0
18.10.2018 07:00:00 8,8 7,4 - - 11 6 NNE 1027,8 45 0,0
18.10.2018 06:00:00 8,2 7,3 - - 9 5 NNE 1027,4 40 0,0
18.10.2018 05:00:00 7,9 6,7 - - 11 6 NNE 1027,0 35 0,0
18.10.2018 04:00:00 8,5 6,8 - - 9 5 NE 1026,8 40 0,0
18.10.2018 03:00:00 8,8 6,7 - - 11 6 NNE 1027,1 40 0,0
18.10.2018 02:00:00 9,4 6,8 - - 13 7 NNE 1027,1 45 0,0
18.10.2018 01:00:00 9,3 7,0 - - 11 6 NNE 1026,8 40 0,0
18.10.2018 00:00:00 9,5 7,1 - - 13 7 NNE 1026,4 40 0,0
17.10.2018 23:00:00 9,7 7,3 - - 15 8 NNE 1025,9 45 0,0
17.10.2018 22:00:00 9,1 7,0 - - 11 6 N 1025,8 40 0,0
17.10.2018 21:00:00 10,0 7,7 - - 15 8 N 1025,1 45 0,0
17.10.2018 20:00:00 10,3 8,4 - - 16 9 N 1024,5 40 0,0
17.10.2018 19:00:00 11,1 9,0 - - 15 8 N 1023,9 45 0,0
17.10.2018 18:00:00 12,1 9,7 - - 16 9 N 1022,9 40 0,0
17.10.2018 17:00:00 12,8 10,2 - - 16 9 N 1022,1 35 0,0
17.10.2018 16:00:00 13,6 10,4 - - 16 9 N 1021,3 30 0,0
17.10.2018 15:00:00 13,7 10,9 - - 15 8 N 1021,0 27 0,0
17.10.2018 14:00:00 13,9 10,8 - - 11 6 N 1020,7 28 0,0
17.10.2018 13:00:00 13,6 11,0 - - 8 4 N 1020,3 22 0,0
17.10.2018 12:00:00 13,3 11,6 - - 8 4 N 1020,1 13 0,0
17.10.2018 11:00:00 13,0 11,9 - - 9 5 NNW 1019,5 14 0,0
17.10.2018 10:00:00 12,5 11,6 13,2 14,0 8 4 NNW 1018,8 13 0,0
17.10.2018 09:00:00 11,8 11,1 - - 11 6 NW 1018,4 15 0,0
17.10.2018 08:00:00 11,3 10,5 - - 8 4 WNW 1017,6 15 0,0
17.10.2018 07:00:00 11,4 10,6 - - 8 4 WNW 1017,0 14 0,0
17.10.2018 06:00:00 11,3 10,4 - - 5 3 WNW 1016,5 13 0,0
17.10.2018 05:00:00 11,7 10,8 - - 9 5 WNW 1016,2 14 0,0
17.10.2018 04:00:00 11,7 10,5 - - 9 5 WNW 1015,7 13 0,0
17.10.2018 03:00:00 12,6 11,2 - - 18 10 W 1016,0 16 0,0
17.10.2018 02:00:00 13,0 11,7 - - 21 11 W 1015,8 15 0,0
17.10.2018 01:00:00 13,2 12,1 - - 21 11 W 1015,5 14 0,0
17.10.2018 00:00:00 13,1 12,1 - - 16 9 W 1015,2 15 0,0

tt = Température de l'air
td = dewpoint
tt -20cm = Température de l'air -20cm
tt -100cm = Température de l'air -100cm
ff = Vitesse du vent
dd = Direction du vent
ppp = reduced air pressure
vv = visibility
rr = Quantités de précipitations

stations d'obs. à proximité